Location: Buckenweiler
(49.0667°N, 10.2500°E)
Time: 05:38:16
(UTC+00:00)

Cosmos 2082 Rocket - Pass Details

Date: 18 January 2026
Orbit: 831 x 853 km, 71.0° (Epoch: 17 February)

Event Time Altitude Azimuth Distance (km) Brightness Sun altitude
Exits shadow 04:12:02 33° 357° (N) 1,403 3.3 -27.9°
Maximum altitude 04:14:20 52° 55° (NE) 1,046 2.9 -27.5°
Drops below altitude 10° 04:19:52 10° 132° (SE) 2,472 5.2 -26.6°
Sets 04:22:23 0° 137° (SE) 3,406 6.0 -26.2°
